DLH388 EIDW-UKBB

Flight info

Callsign DLH388
Flight time N/A
Altitude 41000
Route DEXEN2J DEXEN UY124 AMPIT L15 HON P155 SOMVA DCT RKN L980 POLON M70 TOLPA/K0889F410 M70 SLV
Aircraft A388/J-SADE2E3FGHIJ3J4J5M1RWXY/LB1D1

Departure

Time 2026-05-06 11:22
Airport Dublin Airport (EIDW)

Arrival

Time N/A
Airport Boryspil International Airport (UKBB)
Time Latitude Longitude Altitude Speed Heading
2026-05-06 11:01 53.43113 -6.24597 216 ft 0 kts 185°
2026-05-06 11:15 53.43120 -6.24596 221 ft 2 kts 185°
2026-05-06 11:16 53.43135 -6.24594 219 ft 2 kts 185°
2026-05-06 11:16 53.43151 -6.24591 219 ft 2 kts 185°
2026-05-06 11:16 53.43172 -6.24592 216 ft 4 kts 170°
2026-05-06 11:16 53.43194 -6.24620 221 ft 4 kts 127°
2026-05-06 11:17 53.43199 -6.24643 219 ft 0 kts 97°
2026-05-06 11:17 53.43197 -6.24628 220 ft 0 kts 96°
2026-05-06 11:17 53.43192 -6.24512 220 ft 16 kts 87°
2026-05-06 11:18 53.43241 -6.24420 221 ft 10 kts 13°
2026-05-06 11:18 53.43312 -6.24392 224 ft 11 kts 37°
2026-05-06 11:18 53.43335 -6.24291 216 ft 10 kts 94°
2026-05-06 11:18 53.43329 -6.24148 223 ft 14 kts 94°
2026-05-06 11:19 53.43320 -6.23965 216 ft 17 kts 89°
2026-05-06 11:19 53.43347 -6.23876 221 ft 8 kts 32°
2026-05-06 11:19 53.43377 -6.23858 223 ft 0 kts
2026-05-06 11:21 53.43428 -6.23856 220 ft 16 kts 351°
2026-05-06 11:21 53.43489 -6.23978 221 ft 14 kts 279°
2026-05-06 11:21 53.43501 -6.24184 223 ft 39 kts 275°
2026-05-06 11:21 53.43557 -6.25212 215 ft 134 kts 275°
2026-05-06 11:22 53.43655 -6.27030 399 ft 176 kts 276°
2026-05-06 11:22 53.43763 -6.29175 1016 ft 199 kts 276°
2026-05-06 11:22 53.43906 -6.31594 1837 ft 218 kts 277°
2026-05-06 11:22 53.44335 -6.33939 2923 ft 211 kts 304°
2026-05-06 11:23 53.45348 -6.35560 3813 ft 217 kts 323°
2026-05-06 11:23 53.46618 -6.37056 4476 ft 232 kts 320°
2026-05-06 11:23 53.47785 -6.38807 5372 ft 235 kts 313°
2026-05-06 11:23 53.48879 -6.40867 6312 ft 238 kts 308°
2026-05-06 11:24 53.49883 -6.43025 7170 ft 243 kts 306°
2026-05-06 11:24 53.50865 -6.45287 8128 ft 242 kts 300°
2026-05-06 11:24 53.51397 -6.47923 9056 ft 244 kts 273°
2026-05-06 11:24 53.51107 -6.50675 9999 ft 247 kts 246°
2026-05-06 11:25 53.50049 -6.52904 10835 ft 254 kts 218°
2026-05-06 11:25 53.48422 -6.54083 11664 ft 263 kts 191°
2026-05-06 11:25 53.46586 -6.53867 12498 ft 273 kts 164°
2026-05-06 11:25 53.44940 -6.52251 13311 ft 282 kts 138°
2026-05-06 11:26 53.43694 -6.49688 14070 ft 288 kts 125°
2026-05-06 11:26 53.42610 -6.46883 14797 ft 291 kts 124°
2026-05-06 11:26 53.41503 -6.44122 15507 ft 293 kts 127°
2026-05-06 11:26 53.40295 -6.41351 16220 ft 296 kts 129°
2026-05-06 11:27 53.39034 -6.38628 16912 ft 298 kts 130°
2026-05-06 11:27 53.37813 -6.35836 17581 ft 302 kts 121°
2026-05-06 11:27 53.37020 -6.32559 18258 ft 306 kts 104°
2026-05-06 11:27 53.36655 -6.29047 18815 ft 310 kts 99°
2026-05-06 11:28 53.36297 -6.25455 19177 ft 321 kts 100°
2026-05-06 11:28 53.35902 -6.21687 19334 ft 338 kts 100°
2026-05-06 11:28 53.35478 -6.17732 19483 ft 354 kts 100°
2026-05-06 11:28 53.35032 -6.13581 19623 ft 371 kts 100°
2026-05-06 11:29 53.34568 -6.09276 19780 ft 386 kts 100°
2026-05-06 11:29 53.34104 -6.04964 19919 ft 399 kts 100°
2026-05-06 11:29 53.33619 -6.00477 20079 ft 412 kts 100°
2026-05-06 11:29 53.33106 -5.95751 20477 ft 417 kts 100°
2026-05-06 11:30 53.32591 -5.91017 20945 ft 420 kts 100°
2026-05-06 11:30 53.32064 -5.86195 21426 ft 423 kts 100°